Regional Weather Roundup
Issued by NWS

Home | Current Version | Previous Version | Text Only | Print | Product List | Glossary On
Versions: 1 2 3 4 5 6 7 8 9 10 11 12 13 14 15 16 17 18 19 20 21 22 23 24 25 26 27 28 29 30 31 32 33 34 35 36 37 38 39 40 41 42 43 44 45 46 47 48 49 50
000
ASUS45 KABQ 240910
RWRNM
NEW MEXICO REGIONAL WEATHER ROUNDUP
NATIONAL WEATHER SERVICE ALBUQUERQUE NM
200 AM MST FRI FEB 24 2017

NOTE: "FAIR" MEANS FEW OR NO CLOUDS BELOW 12,000 FEET AGL WITH NO
       SIGNIFICANT WEATHER OR OBSTRUCTIONS TO VISION.

      THIS PRODUCT IS RELEASED AS TWO VERSIONS.  ONE VERSION NEAR
      THE TOP OF THE HOUR CONTAINING PRELIMINARY DATA FROM ALBUQUERQUE
      AND OTHER STATIONS.  A FINAL VERSION WITH ADDITIONAL DATA IS
      ISSUED ABOUT 10 MINUTES AFTER THE HOUR.

NMZ501-503-504-510>518-241000-
NORTHWEST PLATEAU/NORTHCENTRAL MOUNTAINS

CITY           SKY/WX    TMP DP  RH WIND       PRES   REMARKS
FARMINGTON     CLOUDY    30   3  31 W9        29.83R WCI  22
LOS ALAMOS     FAIR      27   4  38 SW3       29.81R
SANTA FE       FAIR      28   8  43 W8        29.80R WCI  20
TAOS           FAIR      19  -2  38 N3        29.78S
ANGEL FIRE     CLOUDY    21   2  45 SW6G17    29.75S WCI  13

$$
NMZ402-403-502-505>509-241000-
WESTCENTRAL MOUNTAINS/SOUTHWEST MOUNTAINS

CITY           SKY/WX    TMP DP  RH WIND       PRES   REMARKS
GALLUP         CLOUDY    29  11  47 W12       29.87R WCI  19
GRANTS         FAIR      28  17  61 NW14G26   29.87S WCI  17
SILVER CITY    FAIR      27  13  56 NW8       29.93S WCI  18

$$
NMZ407-409-411-412-241000-
SOUTHERN DESERTS

CITY           SKY/WX    TMP DP  RH WIND       PRES   REMARKS
DEMING         FAIR      37  14  38 W7        29.93R WCI  32
LAS CRUCES     FAIR      42  10  26 W23G30    29.88R
HOLLOMAN AFB   FAIR      47   8  20 W22       29.89R
ALAMOGORDO     FAIR      48   7  18 S14G21    29.89R
T OR C         FAIR      40   2  20 NW8       29.87R WCI  34

$$
NMZ519>523-241000-
CENTRAL VALLEYS/CENTRAL HIGHLANDS

CITY           SKY/WX    TMP DP  RH WIND       PRES   REMARKS
ALBUQUERQUE    FAIR      35  16  45 SW7       29.85R WCI  29
DOUBLE EAGLE   CLOUDY    33  15  48 W12       29.84S WCI  24
MORIARTY ARPT  FAIR      30  14  51 W7        29.82S WCI  23
CLINES CORNERS FAIR      27  11  51 W15       29.79S WCI  15
BELEN          FAIR      35  15  44 W10       29.87R WCI  27
SOCORRO        FAIR      41   1  19 W8        29.88R

$$
NMZ524>526-539-540-241000-
SOUTHCENTRAL MOUNTAINS

CITY           SKY/WX    TMP DP  RH WIND       PRES   REMARKS
RUIDOSO        FAIR      32  -2  23 W8        29.83R WCI  25

$$
NMZ527>531-241000-
NORTHEAST HIGHLANDS/NORTHEAST PLAINS

CITY           SKY/WX    TMP DP  RH WIND       PRES   REMARKS
LAS VEGAS      FAIR      30   6  36 W18G26    29.75R WCI  18
RATON          FAIR      18  12  77 NE10      29.73R WCI   6
CLAYTON        FAIR      26  24  92 NE8       29.78R WCI  18

$$
NMZ532>537-241000-
EASTCENTRAL PLAINS

CITY           SKY/WX    TMP DP  RH WIND       PRES   REMARKS
TUCUMCARI      FAIR      31  26  82 E6        29.80R WCI  25
CANNON AFB     FAIR      38  11  32 SW8       29.78R WCI  32
CLOVIS AIRPORT FAIR      30  16  55 N9        29.79R WCI  22

$$
NMZ028-029-538-241000-
SOUTHEAST PLAINS

CITY           SKY/WX    TMP DP  RH WIND       PRES   REMARKS
ROSWELL        FAIR      49   3  15 NW8         N/A
ARTESIA        FAIR      43   7  22 W9        29.78S
CARLSBAD       FAIR      55   5  13 W14       29.75S
HOBBS          FAIR      41  16  36 W9        29.80R


$$



USA.gov is the U.S. government's official web portal to all federal, state and local government web resources and services.